This is the latest recevied weather packets stored in our database for station/object K4KMJ. If no packets are shown the sender has not sent any weather packets the latest 10 day(s).
| Time | Temp. | Humidity | Pressure | Rain* | Wind** | Luminosity | Snow |
|---|---|---|---|---|---|---|---|
| 1788461935 | 27.78° C | 96% | 1016.3 hPa | 0 mm | - | 157 W/m² | - |
| 1788461630 | 27.78° C | 95% | 1016.7 hPa | 0 mm | - | 172 W/m² | - |
| 1788461326 | 27.78° C | 95% | 1016.8 hPa | 0 mm | - | 185 W/m² | - |
| 1788461023 | 27.78° C | 95% | 1016.7 hPa | 0 mm | - | 190 W/m² | - |
| 1788460717 | 27.78° C | 96% | 1016.7 hPa | 0 mm | - | 216 W/m² | - |
| 1788460412 | 27.78° C | 96% | 1016.8 hPa | 0 mm | - | 230 W/m² | - |
| 1788460111 | 27.78° C | 96% | 1016.8 hPa | 0 mm | - | 227 W/m² | - |
| 1788459810 | 27.78° C | 96% | 1016.8 hPa | 0 mm | - | 212 W/m² | - |
| 1788459505 | 27.78° C | 95% | 1016.7 hPa | 0 mm | - | 248 W/m² | - |
| 1788459200 | 27.78° C | 95% | 1017 hPa | 0 mm | - | 311 W/m² | - |
| 1788458900 | 28.33° C | 95% | 1016.8 hPa | 0 mm | - | 349 W/m² | - |
| 1788458594 | 28.33° C | 95% | 1016.9 hPa | 0 mm | - | 358 W/m² | - |
| 1788458294 | 27.78° C | 95% | 1016.8 hPa | 0 mm | - | 312 W/m² | - |
| 1788457993 | 27.78° C | 95% | 1016.7 hPa | 0 mm | - | 285 W/m² | - |
| 1788457687 | 27.78° C | 95% | 1017.2 hPa | 0 mm | - | 278 W/m² | - |
| 1788457383 | 27.78° C | 96% | 1017.1 hPa | 0 mm | - | 453 W/m² | - |
| 1788457077 | 27.78° C | 96% | 1017.1 hPa | 0 mm | - | 453 W/m² | - |
| 1788456773 | 27.78° C | 96% | 1017.2 hPa | 0 mm | - | 450 W/m² | - |
| 1788456468 | 27.78° C | 97% | 1017.3 hPa | 0 mm | - | 350 W/m² | - |
| 1788456163 | 27.78° C | 98% | 1017.2 hPa | 0 mm | - | 282 W/m² | - |
| 1788455858 | 27.78° C | 98% | 1017.3 hPa | 0 mm | - | 278 W/m² | - |
| 1788455554 | 27.78° C | 98% | 1017.3 hPa | 0 mm | - | 344 W/m² | - |
| 1788455252 | 27.22° C | 98% | 1017.2 hPa | 0 mm | - | 351 W/m² | - |
| 1788454948 | 27.22° C | 99% | 1017.3 hPa | 0 mm | - | 387 W/m² | - |
| 1788454646 | 27.22° C | 99% | 1017.4 hPa | 0 mm | - | 360 W/m² | - |
* Rain latest hour (hover to see other rain measurements)
** Current wind speed in m/s (hover to see current wind gust speed)